| time (UTC) | temp C | wind direction | speed KPH | gust KPH | rain 1hr cm | rain 24hr cm | rain mn cm | humidity % | barometer mb |
| 20260503215017 | 21 | 238 | 1.6 | 11.3 | 0.00 | 0.00 | 0.00 | 29 | 1004.0 |
| 20260503214016 | 21 | 280 | 3.2 | 14.5 | 0.00 | 0.00 | 0.00 | 29 | 1004.1 |
| 20260503213016 | 21 | 288 | 4.8 | 16.1 | 0.00 | 0.00 | 0.00 | 31 | 1004.0 |
| 20260503212016 | 21 | 284 | 3.2 | 11.3 | 0.00 | 0.00 | 0.00 | 34 | 1004.1 |
| 20260503211015 | 21 | 270 | 4.8 | 17.7 | 0.00 | 0.00 | 0.00 | 35 | 1004.2 |
| 20260503210016 | 21 | 276 | 4.8 | 11.3 | 0.00 | 0.00 | 0.00 | 35 | 1004.3 |
| 20260503205017 | 21 | 262 | 1.6 | 9.7 | 0.00 | 0.00 | 0.00 | 38 | 1004.3 |
| 20260503204016 | 21 | 281 | 4.8 | 11.3 | 0.00 | 0.00 | 0.00 | 38 | 1004.4 |
| 20260503203016 | 21 | 267 | 3.2 | 11.3 | 0.00 | 0.00 | 0.00 | 37 | 1004.3 |
| 20260503202016 | 21 | 283 | 4.8 | 17.7 | 0.00 | 0.00 | 0.00 | 39 | 1004.5 |
| 20260503201016 | 20 | 263 | 1.6 | 8.0 | 0.00 | 0.00 | 0.00 | 41 | 1004.6 |
| 20260503200016 | 20 | 274 | 3.2 | 9.7 | 0.00 | 0.00 | 0.00 | 39 | 1004.7 |
| 20260503195056 | 20 | 254 | 3.2 | 16.1 | 0.00 | 0.00 | 0.00 | 38 | 1004.7 |
| 20260503194056 | 20 | 275 | 4.8 | 11.3 | 0.00 | 0.00 | 0.00 | 39 | 1004.7 |
| 20260503193016 | 20 | 224 | 1.6 | 19.3 | 0.00 | 0.00 | 0.00 | 43 | 1004.7 |
| 20260503192016 | 20 | 250 | 3.2 | 14.5 | 0.00 | 0.00 | 0.00 | 42 | 1004.9 |
| 20260503191016 | 20 | 232 | 3.2 | 11.3 | 0.00 | 0.00 | 0.00 | 42 | 1005.1 |
| 20260503190016 | 20 | 263 | 3.2 | 12.9 | 0.00 | 0.00 | 0.00 | 44 | 1005.2 |
| 20260503185016 | 20 | 257 | 1.6 | 14.5 | 0.00 | 0.00 | 0.00 | 44 | 1005.2 |
| 20260503184016 | 20 | 257 | 3.2 | 11.3 | 0.00 | 0.00 | 0.00 | 44 | 1005.4 |
| 20260503183016 | 20 | 257 | 3.2 | 14.5 | 0.00 | 0.00 | 0.00 | 46 | 1005.5 |
| 20260503182016 | 20 | 270 | 3.2 | 12.9 | 0.00 | 0.00 | 0.00 | 46 | 1005.7 |
| 20260503181016 | 19 | 265 | 3.2 | 11.3 | 0.00 | 0.00 | 0.00 | 46 | 1005.8 |
| 20260503180016 | 19 | 236 | 3.2 | 14.5 | 0.00 | 0.00 | 0.00 | 47 | 1005.8 |
| 20260503175016 | 18 | 261 | 3.2 | 19.3 | 0.00 | 0.00 | 0.00 | 47 | 1005.8 |
| 20260503174016 | 18 | 216 | 8.0 | 17.7 | 0.00 | 0.00 | 0.00 | 50 | 1005.9 |
| 20260503173016 | 17 | 253 | 6.4 | 17.7 | 0.00 | 0.00 | 0.00 | 51 | 1006.0 |
| 20260503172056 | 17 | 224 | 11.3 | 20.9 | 0.00 | 0.00 | 0.00 | 52 | 1006.1 |
| 20260503171016 | 17 | 239 | 8.0 | 20.9 | 0.00 | 0.00 | 0.00 | 50 | 1006.3 |
| 20260503131016 | 12 | 163 | 12.9 | 20.9 | 0.00 | 0.00 | 0.00 | 62 | 1007.2 |
| 20260503081015 | 10 | 136 | 4.8 | 6.4 | 0.00 | 0.00 | 0.00 | 66 | 1009.3 |
| 20260503072015 | 10 | 153 | 3.2 | 4.8 | 0.00 | 0.00 | 0.00 | 65 | 1009.7 |
| 20260503071015 | 10 | 0.0 | 0.0 | 0.00 | 0.00 | 0.00 | 65 | 1009.8 | |
| 20260503055055 | 11 | 230 | 6.4 | 9.7 | 0.00 | 0.00 | 0.00 | 61 | 1010.6 |
| 20260503054015 | 11 | 245 | 8.0 | 22.5 | 0.00 | 0.00 | 0.00 | 59 | 1010.7 |
| 20260503053015 | 11 | 196 | 12.9 | 19.3 | 0.00 | 0.00 | 0.00 | 57 | 1010.8 |
| 20260503052055 | 11 | 182 | 11.3 | 17.7 | 0.00 | 0.00 | 0.00 | 57 | 1010.8 |
| 20260503051015 | 11 | 173 | 8.0 | 14.5 | 0.00 | 0.00 | 0.00 | 56 | 1010.8 |
| 20260503050015 | 11 | 181 | 9.7 | 14.5 | 0.00 | 0.00 | 0.00 | 56 | 1010.9 |
| 20260503045015 | 11 | 172 | 8.0 | 11.3 | 0.00 | 0.00 | 0.00 | 55 | 1011.0 |
| 20260503044015 | 11 | 191 | 8.0 | 12.9 | 0.00 | 0.00 | 0.00 | 57 | 1011.1 |
| 20260503043015 | 11 | 202 | 9.7 | 14.5 | 0.00 | 0.00 | 0.00 | 58 | 1011.2 |
| 20260503042015 | 11 | 226 | 9.7 | 14.5 | 0.00 | 0.00 | 0.00 | 59 | 1011.3 |
| 20260503041015 | 11 | 241 | 4.8 | 11.3 | 0.00 | 0.00 | 0.00 | 59 | 1011.4 |
| 20260503040015 | 11 | 191 | 11.3 | 17.7 | 0.00 | 0.00 | 0.00 | 55 | 1011.6 |
| 20260503035015 | 11 | 156 | 11.3 | 16.1 | 0.00 | 0.00 | 0.00 | 54 | 1011.5 |
| 20260503034015 | 11 | 168 | 8.0 | 12.9 | 0.00 | 0.00 | 0.00 | 54 | 1011.6 |
| 20260503033015 | 11 | 199 | 8.0 | 12.9 | 0.00 | 0.00 | 0.00 | 57 | 1011.7 |
| 20260503032015 | 11 | 203 | 6.4 | 12.9 | 0.00 | 0.00 | 0.00 | 56 | 1011.9 |
| 20260503031015 | 11 | 210 | 4.8 | 11.3 | 0.00 | 0.00 | 0.00 | 55 | 1011.9 |
| 20260503030015 | 11 | 157 | 8.0 | 11.3 | 0.00 | 0.00 | 0.00 | 54 | 1012.0 |
| 20260503024055 | 11 | 171 | 6.4 | 9.7 | 0.00 | 0.00 | 0.00 | 54 | 1012.1 |
| 20260503023015 | 12 | 158 | 6.4 | 9.7 | 0.00 | 0.00 | 0.00 | 52 | 1012.2 |
| 20260503022015 | 12 | 172 | 6.4 | 9.7 | 0.00 | 0.00 | 0.00 | 53 | 1012.2 |
| 20260503021015 | 12 | 171 | 6.4 | 9.7 | 0.00 | 0.00 | 0.00 | 53 | 1012.3 |
| 20260503020015 | 12 | 158 | 6.4 | 8.0 | 0.00 | 0.00 | 0.00 | 52 | 1012.3 |
| 20260503015015 | 12 | 164 | 4.8 | 6.4 | 0.00 | 0.00 | 0.00 | 52 | 1012.4 |
| 20260503014015 | 12 | 162 | 6.4 | 9.7 | 0.00 | 0.00 | 0.00 | 53 | 1012.2 |
| 20260503013015 | 12 | 216 | 6.4 | 8.0 | 0.00 | 0.00 | 0.00 | 55 | 1012.2 |
| 20260503012015 | 12 | 226 | 6.4 | 11.3 | 0.00 | 0.00 | 0.00 | 54 | 1012.3 |
| 20260503011015 | 12 | 206 | 8.0 | 11.3 | 0.00 | 0.00 | 0.00 | 53 | 1012.2 |
| 20260503010015 | 12 | 228 | 4.8 | 9.7 | 0.00 | 0.00 | 0.00 | 55 | 1012.2 |
| 20260503005015 | 12 | 239 | 6.4 | 11.3 | 0.00 | 0.00 | 0.00 | 54 | 1012.3 |
| 20260503004015 | 12 | 258 | 3.2 | 8.0 | 0.00 | 0.00 | 0.00 | 53 | 1012.3 |
| 20260503003015 | 12 | 250 | 6.4 | 8.0 | 0.00 | 0.00 | 0.00 | 52 | 1012.4 |
| 20260503002135 | 13 | 270 | 1.6 | 11.3 | 0.00 | 0.00 | 0.00 | 50 | 1012.6 |
| 20260503001015 | 13 | 268 | 3.2 | 9.7 | 0.00 | 0.00 | 0.00 | 49 | 1012.6 |
| 20260502235014 | 13 | 267 | 3.2 | 14.5 | 0.00 | 0.00 | 0.00 | 47 | 1012.9 |
| 20260502234015 | 13 | 262 | 3.2 | 14.5 | 0.00 | 0.00 | 0.00 | 48 | 1012.7 |
| 20260502233015 | 14 | 269 | 3.2 | 9.7 | 0.00 | 0.00 | 0.00 | 45 | 1012.8 |
| 20260502232014 | 15 | 243 | 1.6 | 19.3 | 0.00 | 0.00 | 0.00 | 42 | 1012.9 |
| 20260502231055 | 15 | 271 | 4.8 | 19.3 | 0.00 | 0.00 | 0.00 | 42 | 1012.9 |
| 20260502230015 | 15 | 274 | 3.2 | 9.7 | 0.00 | 0.00 | 0.00 | 42 | 1013.0 |
| 20260502225015 | 15 | 273 | 4.8 | 16.1 | 0.00 | 0.00 | 0.00 | 43 | 1013.1 |
| 20260502224015 | 15 | 269 | 4.8 | 12.9 | 0.00 | 0.00 | 0.00 | 43 | 1013.2 |
| 20260502223014 | 14 | 275 | 1.6 | 6.4 | 0.00 | 0.00 | 0.00 | 42 | 1013.2 |
| 20260502222017 | 14 | 255 | 1.6 | 12.9 | 0.00 | 0.00 | 0.00 | 41 | 1013.2 |
| 20260502221056 | 15 | 265 | 4.8 | 22.5 | 0.00 | 0.00 | 0.00 | 41 | 1013.3 |
| 20260502220016 | 15 | 256 | 6.4 | 19.3 | 0.00 | 0.00 | 0.00 | 40 | 1013.4 |